Orbital elements:
2001 KA67
Epoch 2005 Aug. 18.0 TT = JDT 2453600.5                 MPC
M 287.86189              (2000.0)            P               Q
n   0.40653691     Peri.   37.45309     -0.78782902     -0.49867429
a   1.8046905      Node   108.79418     +0.43102215     -0.86562414
e   0.7017997      Incl.   22.44597     +0.43993789     -0.04493111
P   2.42           H   16.7           G   0.15           U   2
Residuals in seconds of arc
010530 699  1.1+  0.4+    010610 306  0.1+  0.6-    010622 939  0.2-  0.1+
010530 699  0.7+  0.1-    010610 306  0.6-  0.1-    010624 557  0.6-  0.5+
010530 699  1.0+  0.2+    010610 306  1.4-  0.7-    010624 557  0.9-  0.9+
010530 699  0.7+  0.1+    010611 726  0.3-  0.1+    010624 739  0.1-  0.0
010530 198  0.4+  0.3+    010611 726  0.1+  0.0     010624 739  0.2+  0.3+
010530 163  0.2-  0.3-    010611 726  0.3-  0.1-    010624 739  0.2+  0.1+
010530 165  0.4-  0.5+    010611 726  0.6-  0.3+    010624 557  0.1-  0.0
010530 163  0.0   1.2+    010611 670  0.3-  0.0     010624 557  0.0   0.1+
010530 163  0.8-  0.0     010611 670  0.0   0.2+    010624 557  0.2-  0.1-
010530 163  0.1+  0.2+    010611 670  0.2+  0.3-    010624 557  0.0   0.0
010530 163  0.1+  0.8+    010611 300  0.1-  0.2-    010624 557  0.0   0.1+
010530 163  0.3-  0.8+    010611 300  0.1-  0.3-    010624 557  0.0   0.0
010530 165  0.2-  0.6+    010611 360  0.0   0.5+    010624 557  0.1-  0.0
010530 165 (0.6+  2.2+)   010611 360  0.0   0.5+    010625 557  0.0   0.1-
010530 165  0.2-  0.5-    010611 300  1.5-  0.2+    010625 670  0.5-  0.5-
010530 046  0.5+  0.1-    010611 360  0.0   0.5+    010625 670  0.1+  0.1-
010530 046  0.0   0.1-    010611 300  0.6+  0.1+    010625 670  0.5+  0.0
010530 046  0.2-  0.1-    010611 151  0.3-  1.7-    010625 608  0.8+  0.4-
010530 046  0.7+  0.1+    010611 151  0.1+  0.5-    010625 608  0.4+  0.3-
010530 118  0.3-  0.3-    010611 151  1.0-  0.3-    010625 608  0.2+  0.4-
010530 118  0.0   0.7+    010611 151  0.4-  0.8-    010625 557  0.0   0.1+
010530 118  0.3-  0.1-    010611 151  0.1-  0.5-    010625 557  0.1-  0.3+
010530 118  0.1-  0.0     010611 151  0.3-  0.8-    010625 118  0.2+  0.2+
010530 198 (2.6+  3.0+)   010611 587  0.1-  0.3+    010625 118  0.2+  0.4+
010530 012  0.1+  0.2-    010611 587  0.3+  0.1-    010625 118  0.1+  0.2+
010530 012  0.1-  0.6-    010611 587  0.1+  0.1-    010625 127  0.2+  0.0
010530 012  0.1+  0.5-    010612 151  0.4-  0.4+    010625 127  0.0   0.2+
010530 012  0.3-  0.6-    010612 151  0.6-  0.3-    010625 071  0.1-  1.9+
010530 012  0.1-  0.6-    010612 151  0.0   0.3+    010625 071  0.6-  0.4-
010531 918  0.0   0.2-    010612 151  0.4+  0.1+    010625 071  0.4-  1.4-
010531 918  0.0   0.2-    010612 151  0.2-  0.0     010625 557  0.1-  0.3+
010531 918  0.2-  0.0     010612 151  0.1+  0.2-    010625 557  0.2-  0.4+
010531 918  0.0   0.1+    010613 118  0.3+  0.1+    010625 636  0.1-  0.8-
010531 711  0.2+  0.2+    010613 118  0.1+  0.0     010625 636  0.3+  0.0
010531 711  0.1+  0.2-    010613 118  0.1+  0.0     010625 636  0.6+  0.6-
010531 711  0.3+  0.1-    010613 670  0.3-  0.2+    010625 557  0.0   0.1-
010531 699  0.1-  0.1+    010613 670  0.1+  0.3-    010626 557  0.0   0.1+
010531 658  0.2+  0.1+    010613 670  0.1-  0.4-    010626 557  0.3-  1.1+
010531 658  0.2+  0.2+    010614 699  0.8+  0.1+    010626 557  0.2+  0.3+
010531 699  0.1+  0.1+    010614 699  0.9+  0.2+    010626 919  0.7-  0.3+
010531 658  0.1+  0.1+    010614 699  0.9+  0.3+    010626 919  0.1+  0.2-
010531 699  0.0   0.1+    010614 699  0.7+  0.3+    010626 919  0.1+  0.2-
010531 699 (1.6-  2.5+)   010614 151  0.2-  0.0     010626 151  0.3+  0.3+
010531 151  0.3-  0.4+    010614 151  0.1+  0.7+    010626 557  0.0   0.2+
010531 151  0.3-  0.1+    010614 151  0.2-  0.4+    010626 151  0.6+  0.1+
010531 151  0.7+  0.5-    010614 151  0.0   0.3+    010626 151  0.1-  0.3+
010531 151 (0.3-  3.9-)   010614 151  0.2-  0.4+    010626 560 (0.5+  3.0-)
010531 151  0.1-  0.2-    010614 151  0.1-  0.4+    010626 151  0.1+  0.1+
010531 151  0.3+  0.9-    010615 157  0.1+  0.3-    010626 560 (0.2+  3.0-)
010531 587  0.2-  0.4+    010615 157  0.6-  0.6-    010626 151  0.0   0.5+
010531 151  0.4-  0.5-    010615 157  0.2-  0.1-    010626 151  0.2+  0.1-
010531 587  0.0   0.1-    010615 118  0.3-  0.5+    010626 560 (0.9+  2.0-)
010531 587  0.3+  0.1+    010615 118  0.1-  0.4+    010626 557  0.0   0.1-
010531 938  0.8+  0.4+    010615 118  0.1-  0.4+    010626 560 (0.0   2.5-)
010531 938  0.2+  0.2-    010616 670  0.1+  0.2-    010626 557  0.0   0.1+
010531 938  0.5+  0.3-    010616 670  0.3+  0.2-    010626 557  0.0   0.2+
010601 294  0.3+  0.4-    010616 670  0.0   0.3+    010626 557  0.1-  0.1+
010601 294  0.5-  1.6+    010616 157  0.2-  0.0     010627 557  0.2-  0.3+
010601 294  1.5-  0.1-    010616 157  0.3-  0.0     010627 608  0.1-  1.0-
010601 294 (0.8+  2.1+)   010616 157  0.3-  0.4-    010627 644  0.4+  0.2+
010601 294  1.8-  1.0+    010616 939  0.4-  0.0     010627 608  0.1-  0.6-
010601 294  1.3-  0.5+    010616 939  0.5-  0.3-    010627 608  0.0   0.6-
010601 294  1.4-  0.5+    010616 939  0.1+  1.2-    010627 644  0.3+  0.2+
010601 294  0.5-  0.3-    010616 939  0.1+  1.4+    010627 644  0.3+  0.1+
010601 294  0.5-  0.3+    010617 642  0.6-  1.4-    010627 608  0.2+  0.3-
010601 294  0.6-  0.3+    010617 642  0.5-  0.0     010627 608  0.1+  0.6-
010601 294  0.5+  0.8+    010617 642  0.2-  0.1-    010627 608  0.0   0.5-
010601 294 (1.0+  4.8+)   010617 642  0.1-  0.2+    010627 118  0.1-  0.1+
010601 540  0.2+  0.6+    010617 642  0.1-  0.6+    010627 118  0.4+  0.1-
010601 540  0.2+  0.6+    010618 322  0.3-  0.3-    010627 118  0.6+  0.2-
010601 540  0.1-  0.1+    010618 322  0.5-  0.6+    010628 919  0.6+  0.1-
010601 540  0.0   0.0     010619 493  0.0   0.1+    010628 919  0.1+  0.1-
010601 938  0.1+  0.3+    010619 493  0.0   0.2+    010629 608  0.1-  0.7+
010601 938  0.9-  0.2+    010619 493  0.4+  0.2+    010629 608  0.1+  0.9+
010601 938  0.3-  0.1+    010619 493  0.3+  0.0     010629 608  0.1-  0.6+
010601 938  0.3+  0.3+    010619 704  0.0   0.3+    010629 151  0.5+  0.5-
010601 938  0.3+  0.2+    010619 704  0.5+  0.5+    010629 151  0.4+  0.9+
010601 938  0.5+  0.2+    010619 704  0.4+  0.7+    010629 151  0.0   0.0
010602 704  0.1+  0.4+    010619 704  0.7+  0.8+    010629 151  0.2-  0.4+
010602 704  0.9+  0.3+    010619 704  0.1+  0.6+    010629 151  0.4+  0.0
010602 704  0.6+  0.6-    010619 608  0.4+  0.6-    010629 151  0.0   0.2+
010602 704  0.7+  0.1+    010619 608  0.4+  0.5-    010629 952  0.3-  0.0
010602 704  0.4+  0.0     010619 608  0.3+  0.5-    010629 952  0.1-  0.6+
010603 151  0.1+  0.9-    010619 196  0.3-  0.3+    010629 952  0.4-  1.6+
010603 151  0.4+  0.2-    010619 196  0.8+  0.4+    010629 636  1.3-  0.2-
010603 151  0.1+  0.4-    010619 127  0.2+  0.8+    010629 636  1.1-  1.5-
010603 151  0.0   0.7+    010619 127  0.2+  0.3+    010629 636 (0.2-  2.6+)
010603 151  0.1+  0.2-    010619 127  0.1+  0.9+    010705 046  0.7+  0.8+
010603 151  0.2+  0.0     010619 196  0.4+  0.4+    010705 046  0.6+  0.3-
010604 670  0.1+  0.0     010619 196  0.8+  1.0-    010705 046  0.4+  0.2+
010604 670  0.1+  0.5-    010620 670  0.3+  0.0     010705 046  0.7+  0.1-
010604 658  0.2+  0.1-    010620 670  0.2+  0.4+    010710 046  0.6+  0.3-
010604 658  0.2+  0.1+    010620 670  0.0   0.3+    010710 046  0.7-  0.2+
010604 658  0.2+  0.0     010620 176  0.4-  0.3+    010710 046  0.7+  0.5-
010604 670  0.0   0.0     010620 196  0.5+  0.7+    010714 670  0.1-  0.5-
010604 151  0.3-  1.0-    010620 176  0.3-  0.0     010714 118  0.5+  0.1+
010604 151  0.2+  1.3-    010620 196  0.5+  0.4+    010714 118  0.5+  0.3-
010604 151  0.5-  0.3+    010620 176  0.3-  0.1-    010714 118  0.0   0.5+
010604 151  0.2+  0.2-    010620 470  0.2-  0.3+    010716 699  1.6+  0.4+
010604 151  0.4+  0.2-    010620 196  0.0   0.6+    010716 699  0.9+  0.5+
010604 151  0.5-  0.3+    010620 470  0.2-  0.2+    010716 699  0.7+  0.8+
010605 670  0.2+  0.4+    010620 196  0.3+  0.3+    010716 699  0.4+  0.1-
010605 670  0.1-  0.3-    010620 215  0.3+  0.1+    010725 608  0.1+  0.6-
010605 670  0.1-  0.3-    010620 215  0.2+  0.2+    010725 608  0.1-  0.4-
010607 649  0.1+  0.2-    010620 215  0.1-  0.2+    010725 608  0.7+  0.4-
010607 649  0.2+  0.1+    010622 560 (0.5-  2.0-)   010808 413  0.3-  0.2-
010607 649  0.0   0.0     010622 560  0.6-  1.6-    010808 413  0.1+  0.1-
010607 118  0.3-  0.3-    010622 560  0.6-  1.7-    010808 413  0.1-  0.1+
010607 118  0.0   0.2-    010622 151  0.2+  0.2-    010809 413  0.1-  0.1+
010607 118  0.3-  0.1-    010622 560  0.7-  1.6-    010809 413  0.5-  0.2+
010608 176  1.0+  1.3-    010622 151  0.0   0.2+    010809 413  0.4-  0.1-
010608 176  0.5+  1.6-    010622 151  0.0   0.1+    040724 474  0.0   0.3-
010608 176  0.5+  0.2-    010622 151  0.1-  0.3-    040724 474  0.2-  0.1-
010608 176  0.6-  1.1-    010622 151  0.2-  0.0     040724 474  0.1-  0.3-
010608 176  0.3+  0.4+    010622 151  0.1-  0.2+    050802 474  0.3+  0.1+
010610 306  0.1+  0.3-    010622 939  0.3-  0.5-    050802 474  0.2-  0.3-
010610 306  0.4-  1.3-    010622 470  0.3-  0.2-    050802 474  0.1+  0.3-
010610 306  0.6-  0.3-    010622 939  0.1-  0.2-    050802 474  0.3+  0.2-
010610 306  0.4+  0.4-    010622 470  0.3-  0.1+

